Preview of NWS' New Version of Forecast
This preview is not operational and should not be used for support decisions.

Regional Weather Roundup (RWR)

Issued by Gray - Portland, ME (GYX)

                            
807 
ASUS41 KGYX 211010
RWRGYX
WEATHER ROUNDUP FOR MAINE AND NEW HAMPSHIRE
NATIONAL WEATHER SERVICE GRAY ME
500 AM EST WED FEB 21 2018

MEZ002-005-006-010-012-015-018-020-021-024-026-027-029-211100-
MAINE
  
CITY           SKY/WX    TMP DP  RH WIND       PRES   REMARKS
PORTLAND       FOG       35  35 100 CALM      30.20F VSB 1/4          
SANFORD        FAIR      32  32 100 SE3       30.20F FOG              
BAR HARBOR     FOG       36  36 100 S3        30.20F VSB 1/4          
WISCASSET      FOG       35  35 100 CALM      30.21F VSB 1/2          
ROCKLAND       FOG       36  36 100 CALM      30.21S VSB 1/4          
FRYEBURG       FOG       31  31 100 CALM      30.17F VSB 3/4          
LEWISTONAUBURN FOG       36  36 100 CALM      30.19F VSB 1/4          
AUGUSTA        FOG       36  35  96 S3        30.19S VSB 1/4          
WATERVILLE     FOG       35  35 100 S3        30.14S VSB 1/4          
BANGOR         FOG       34  34 100 S3        30.18F VSB 1/4          
GREENVILLE       N/A     33  33 100 SE10      30.07F                  
MILLINOCKET    FOG       35  35 100 VRB3      30.15F VSB 1/4          
HOULTON        CLOUDY    32  32 100 S7        30.12F FOG              
PRESQUE ISLE   NOT AVBL                                               
FRENCHVILLE    FRZ RAIN  28  28 100 SE14      30.04F VSB 1/2 WCI  17  
CARIBOU        FRZ RAIN  31  29  92 S15       30.07F FOG              
$$

NHZ002-005-008-009-011-012-014-211100-
NEW HAMPSHIRE
  
CITY           SKY/WX    TMP DP  RH WIND       PRES   REMARKS
PORTSMOUTH     PTCLDY    34  34 100 CALM      30.20F                  
ROCHESTER      CLOUDY    34  34 100 CALM      30.19F FOG              
NASHUA         FAIR      35  35 100 CALM      30.21F FOG              
MANCHESTER     FAIR      37  36  96 CALM      30.19F                  
CONCORD        FOG       36  33  89 CALM      30.21F VSB 1/4          
LACONIA        FOG       33  33 100 CALM      30.20F VSB 1/4          
PLYMOUTH       CLOUDY    32  31  98 CALM      30.20F                  
BERLIN         FOG       34  34 100 CALM      30.11F VSB 1/4          
WHITEFIELD     FAIR      34  34 100 CALM      30.13F                  
JAFFREY        FOG       37  32  82 S6        30.22F VSB 1/4          
KEENE          FOG       34  34 100 S5        30.23F VSB 1/4          
LEBANON        FOG       35  34  96 CALM      30.17F VSB 3/4          
MT WASHINGTON  PTCLDY    45  43  93 W66G77      N/A                   
$$

VTZ005-007-008-211100-
VERMONT
  
CITY           SKY/WX    TMP DP  RH WIND       PRES   REMARKS
ST JOHNSBURY     N/A     37  37 100 MISG      30.11F                  
MONTPELIER     FAIR      51  49  92 S3        30.16F                  
BURLINGTON     FAIR      61  51  70 S20G30    30.07F                  
$$

MAZ007-012-024-CTZ003-RIZ002-NYZ038-NYZ072-211100-
SOUTHERN NEW ENGLAND AND NY
  
CITY           SKY/WX    TMP DP  RH WIND       PRES   REMARKS
BOSTON         FAIR      52  51  97 SW12      30.23F                  
WORCESTER      FOG       52  32  46 SW16      30.25S VSB 1/2          
NANTUCKET      FOG       44  44 100 SW8       30.33S VSB 1/4          
PROVIDENCE     CLOUDY    57  56  96 SW10      30.28F                  
HARTFORD       FOG       48  48 100 S5        30.27S VSB 1/4          
ALBANY         FAIR      56  52  86 S9        30.18F                  
NEW YORK CITY  CLOUDY    50  49  96 S6        30.30S FOG              
$$

ANZ081-ANZ082-ANZ150-NHZ014-MEZ023>029-211100-
COASTAL MARINE OBSERVATIONS
  
STATION/POSITION TIME  TEMP    WIND        PRES    WAVE
                       AIR SEA DIR/SP/G            HT/PER
                 (UTC) (F)     (DEG/KT/KT) (MB)    (FT/S)
MOUNT DESERT ROC 1000   42     190/ 13/ 14 1022.7F
MATINICUS ROCK   1000   40     210/ 13/ 14 1022.3F
ISLE OF SHOALS   1000   38     320/  2/  2 1022.8F
JEFFREYS LEDGE   0936      42                N/A     3/11
GEORGES BANK BUO 0850   47 61              1026.8    9/ 8
$$

.............KEY..............
   WCI - WIND CHILL
   TC  - TEMPERATURE IN CELSIUS
   VSB - VISIBILITY IN MILES
   HX  - HEAT INDEX
   FAIR- INDICATES FEW OR NO CLOUDS BELOW 12,000 FT, WITH NO 
         SIGNIFICANT WEATHER AND/OR OBSTRUCTIONS TO VISIBILITY.